Terminal Aerodrome Forecast
Issued by NWS Memphis, TN

Home | Current Version | Previous Version | Text Only | Print | Product List | Glossary On
Versions: 1 2 3 4 5 6 7 8 9 10 11 12 13 14 15 16
000
FTUS44 KMEG 250800 AAA
TAFMKL
TAF AMD
KMKL 250815Z 2508/2606 00000KT P6SM FEW250
      TEMPO 2508/2512 3SM BR
     FM251400 25007KT P6SM SCT040
     FM260000 00000KT P6SM SKC=

USA.gov is the U.S. government's official web portal to all federal, state and local government web resources and services.